Flag for U.S.A. Weather past 2 weeks in Boise, Idaho, U.S.A.

Now
39 °F

Overcast.


Feels Like: 32 °F
Forecast: 35 / 44 °F
Wind: 10 mph from South

Location: Boise Air Terminal

Current Time: Feb 1, 2015 at 6:13:10 PM

Latest Report: Feb 1, 2015 at 4:53 PM


Visibility: 10 mi

Pressure: 30.13 "Hg

Humidity: 79%

Dew point: 33 °F

Location of BoiseLocation

Historic Weather in Boise — Graph

°F

Boise temperature yesterday

Maximum temperature yesterday: 48 °F (at 3:53 PM)
Minimum temperature yesterday: 24 °F (at 7:53 AM)
Average temperature yesterday: 35 °F

Past Weeks' High & Low Weather Summary

 TemperatureHumidityPressure
High49 °F (Jan 18, 2:53 PM)100% (Jan 18, 10:53 PM)30.68 "Hg (Jan 18, 10:53 PM)
Low23 °F (Jan 22, 7:53 AM)52% (Jan 22, 2:53 PM)30.09 "Hg (Jan 27, 4:59 AM)
Average34 °F85%30.37 "Hg
* Reported Jan 17 4:53 PM — Feb 1 4:53 PM, Boise, Weather by CustomWeather, © 2014

Note: Actual official high and low records may vary slightly from our data, if they occured in-between our weather recording intervals... More about our weather records

Advertising

Boise weather history for previous 24 hours

 ConditionsComfort  
Time TempWeatherWind HumidityBarometerVisibility
4:53 PM
Feb 1
39 °FOvercast.10 mph79%30.13 "Hg10 mi
3:53 PM40 °FMostly cloudy.13 mph80%30.14 "Hg10 mi
2:53 PM40 °FOvercast.6 mph70%30.17 "Hg10 mi
1:53 PM42 °FLight rain. Overcast.9 mph65%30.20 "Hg10 mi
12:53 PM42 °FMostly cloudy.10 mph62%30.21 "Hg10 mi
11:53 AM41 °FSunny.8 mph60%30.22 "Hg10 mi
10:53 AM39 °FPartly sunny.8 mph55%30.23 "Hg10 mi
9:53 AM38 °FScattered clouds.14 mph55%30.22 "Hg10 mi
8:53 AM36 °FClear.8 mph62%30.22 "Hg10 mi
7:53 AM35 °FClear.10 mph61%30.20 "Hg10 mi
6:53 AM35 °FOvercast.9 mph61%30.20 "Hg10 mi
5:53 AM34 °FPassing clouds.9 mph64%30.21 "Hg10 mi
4:53 AM36 °FClear.12 mph62%30.19 "Hg10 mi
3:53 AM35 °FClear.13 mph64%30.20 "Hg10 mi
2:53 AM34 °FClear.9 mph70%30.22 "Hg10 mi
1:53 AM32 °FClear.8 mph79%30.22 "Hg10 mi
12:53 AM32 °FClear.5 mph75%30.23 "Hg10 mi
11:53 PM
Jan 31
34 °FClear.No wind73%30.23 "Hg10 mi
10:53 PM33 °FClear.5 mph78%30.22 "Hg10 mi
9:53 PM33 °FClear.No wind82%30.22 "Hg10 mi
8:53 PM34 °FClear.No wind79%30.21 "Hg10 mi
7:53 PM40 °FClear.5 mph68%30.22 "Hg10 mi
6:53 PM41 °FSunny.6 mph65%30.21 "Hg10 mi
Weather by CustomWeather, © 2014

See weather overviewHow to use our weather pages